Location: Palmerston North
(40.3500°S, 175.6170°E)
Time: 03:20:20
(UTC+13:00)

ISS - Pass Details

Date: 21 October 2019
Orbit: 412 x 421 km, 51.6° (Epoch: 13 November)

Event Time Altitude Azimuth Distance (km) Brightness Sun altitude
Rises 20:49:42 0° 297° (WNW) 2,357 0.6 -12.6°
Reaches altitude 10° 20:51:49 10° 292° (WNW) 1,500 -0.4 -13.0°
Maximum altitude 20:55:07 54° 213° (SSW) 521 -3.0 -13.6°
Drops below altitude 10° 20:58:29 10° 134° (SE) 1,519 -1.1 -14.1°
Enters shadow 20:59:50 - 131° (SE) 2,063 -0.5 -14.4°
